Time,TemperatureF,DewpointF,PressureIn,WindDirection,WindDirectionDegrees,WindSpeedMPH,WindSpeedGustMPH,Humidity,HourlyPrecipIn,Conditions,Clouds,dailyrainin,SoftwareType,DateUTC
2013-06-20 00:01:00,56.7,35.5,30.33,North,4,0.0,0.0,45,0.00,BKN,BKN,0.00,WeatherDisplay:10.34,2013-06-20 04:01:00,
2013-06-20 00:02:00,56.7,36.1,30.33,North,4,0.0,0.0,46,0.00,BKN,BKN,0.00,WeatherDisplay:10.34,2013-06-20 04:02:00,
2013-06-20 00:03:00,56.7,36.1,30.33,North,4,0.0,0.0,46,0.00,BKN,BKN,0.00,WeatherDisplay:10.34,2013-06-20 04:03:00,
2013-06-20 00:06:00,56.7,36.1,30.33,North,4,0.0,0.0,46,0.00,BKN,BKN,0.00,WeatherDisplay:10.34,2013-06-20 04:06:00,
2013-06-20 00:10:00,56.5,35.9,30.33,North,4,0.0,0.0,46,0.00,BKN,BKN,0.00,WeatherDisplay:10.34,2013-06-20 04:10:00,
2013-06-20 00:15:00,56.3,35.8,30.33,North,4,0.0,0.0,46,0.00,BKN,BKN,0.00,WeatherDisplay:10.34,2013-06-20 04:15:00,
2013-06-20 00:20:00,56.1,35.6,30.33,North,4,0.0,0.0,46,0.00,BKN,BKN,0.00,WeatherDisplay:10.34,2013-06-20 04:20:00,
2013-06-20 00:25:00,56.3,35.8,30.33,NNW,347,3.0,3.0,46,0.00,BKN,BKN,0.00,WeatherDisplay:10.34,2013-06-20 04:25:00,
2013-06-20 00:30:00,56.3,35.8,30.33,NNE,12,4.0,6.0,46,0.00,BKN,BKN,0.00,WeatherDisplay:10.34,2013-06-20 04:30:00,
2013-06-20 00:35:00,56.5,35.9,30.33,North,351,3.0,5.0,46,0.00,BKN,BKN,0.00,WeatherDisplay:10.34,2013-06-20 04:35:00,
2013-06-20 00:40:00,56.5,35.9,30.33,NNE,25,0.0,0.0,46,0.00,BKN,BKN,0.00,WeatherDisplay:10.34,2013-06-20 04:40:00,
2013-06-20 00:45:00,56.5,35.9,30.33,NNE,25,0.0,0.0,46,0.00,BKN,BKN,0.00,WeatherDisplay:10.34,2013-06-20 04:45:00,
2013-06-20 00:50:00,56.5,35.9,30.33,NNE,25,0.0,0.0,46,0.00,BKN,BKN,0.00,WeatherDisplay:10.34,2013-06-20 04:50:00,
2013-06-20 00:55:00,56.3,35.8,30.33,NNE,25,0.0,0.0,46,0.00,BKN,BKN,0.00,WeatherDisplay:10.34,2013-06-20 04:55:00,
2013-06-20 01:00:00,55.9,36.0,30.33,NNE,25,0.0,0.0,47,0.00,BKN,BKN,0.00,WeatherDisplay:10.34,2013-06-20 05:00:00,
2013-06-20 01:05:00,55.9,36.0,30.33,NNE,25,0.0,0.0,47,0.00,BKN,BKN,0.00,WeatherDisplay:10.34,2013-06-20 05:05:00,
2013-06-20 01:10:00,55.4,35.5,30.33,NNE,25,0.0,0.0,47,0.00,BKN,BKN,0.00,WeatherDisplay:10.34,2013-06-20 05:10:00,
2013-06-20 01:15:00,55.0,35.7,30.33,NNE,25,0.0,0.0,48,0.00,BKN,BKN,0.00,WeatherDisplay:10.34,2013-06-20 05:15:00,
2013-06-20 01:20:00,54.9,35.5,30.33,NNE,25,0.0,0.0,48,0.00,BKN,BKN,0.00,WeatherDisplay:10.34,2013-06-20 05:20:00,
2013-06-20 01:25:00,54.7,35.4,30.33,NNE,25,0.0,0.0,48,0.00,BKN,BKN,0.00,WeatherDisplay:10.34,2013-06-20 05:25:00,
2013-06-20 01:30:00,54.5,35.7,30.33,NNE,25,0.0,0.0,49,0.00,BKN,BKN,0.00,WeatherDisplay:10.34,2013-06-20 05:30:00,
2013-06-20 01:35:00,54.3,35.5,30.33,NNE,25,0.0,0.0,49,0.00,BKN,BKN,0.00,WeatherDisplay:10.34,2013-06-20 05:35:00,
2013-06-20 01:40:00,54.3,36.1,30.33,NNE,25,0.0,0.0,50,0.00,BKN,BKN,0.00,WeatherDisplay:10.34,2013-06-20 05:40:00,
2013-06-20 01:45:00,54.3,36.1,30.33,NNE,25,0.0,0.0,50,0.00,BKN,BKN,0.00,WeatherDisplay:10.34,2013-06-20 05:45:00,
2013-06-20 01:50:00,54.1,35.4,30.33,NNE,25,0.0,0.0,49,0.00,BKN,BKN,0.00,WeatherDisplay:10.34,2013-06-20 05:50:00,
2013-06-20 01:55:00,54.1,35.4,30.33,NNE,25,0.0,0.0,49,0.00,BKN,BKN,0.00,WeatherDisplay:10.34,2013-06-20 05:55:00,
2013-06-20 02:00:00,54.0,35.7,30.33,NNE,25,0.0,0.0,50,0.00,BKN,BKN,0.00,WeatherDisplay:10.34,2013-06-20 06:00:00,
2013-06-20 02:05:00,53.8,35.6,30.33,NNE,25,0.0,0.0,50,0.00,BKN,BKN,0.00,WeatherDisplay:10.34,2013-06-20 06:05:00,
2013-06-20 02:10:00,53.6,35.4,30.33,NNE,25,0.0,0.0,50,0.00,BKN,BKN,0.00,WeatherDisplay:10.34,2013-06-20 06:10:00,
2013-06-20 02:15:00,53.6,35.4,30.33,NNE,25,0.0,0.0,50,0.00,BKN,BKN,0.00,WeatherDisplay:10.34,2013-06-20 06:15:00,
2013-06-20 02:20:00,53.4,35.2,30.33,NNE,25,0.0,0.0,50,0.00,BKN,BKN,0.00,WeatherDisplay:10.34,2013-06-20 06:20:00,
2013-06-20 02:25:00,53.4,35.7,30.33,NNE,25,0.0,0.0,51,0.00,BKN,BKN,0.00,WeatherDisplay:10.34,2013-06-20 06:25:00,
2013-06-20 02:30:00,53.2,36.1,30.33,NNE,25,0.0,0.0,52,0.00,BKN,BKN,0.00,WeatherDisplay:10.34,2013-06-20 06:30:00,
2013-06-20 02:36:00,53.1,35.9,30.33,NNE,25,0.0,0.0,52,0.00,BKN,BKN,0.00,WeatherDisplay:10.34,2013-06-20 06:36:00,
2013-06-20 02:41:00,53.1,35.9,30.33,NNE,25,0.0,0.0,52,0.00,BKN,BKN,0.00,WeatherDisplay:10.34,2013-06-20 06:41:00,
2013-06-20 02:46:00,52.9,36.2,30.33,NNE,25,0.0,0.0,53,0.00,BKN,BKN,0.00,WeatherDisplay:10.34,2013-06-20 06:46:00,
2013-06-20 02:51:00,52.7,36.0,30.33,NNE,25,0.0,0.0,53,0.00,BKN,BKN,0.00,WeatherDisplay:10.34,2013-06-20 06:51:00,
2013-06-20 02:56:00,52.7,36.5,30.33,NNE,25,0.0,0.0,54,0.00,BKN,BKN,0.00,WeatherDisplay:10.34,2013-06-20 06:56:00,
2013-06-20 03:01:00,52.5,36.3,30.33,NNE,25,0.0,0.0,54,0.00,BKN,BKN,0.00,WeatherDisplay:10.34,2013-06-20 07:01:00,
2013-06-20 03:06:00,52.5,36.3,30.33,NNE,25,0.0,0.0,54,0.00,BKN,BKN,0.00,WeatherDisplay:10.34,2013-06-20 07:06:00,
2013-06-20 03:11:00,52.3,36.2,30.33,NNE,25,0.0,0.0,54,0.00,BKN,BKN,0.00,WeatherDisplay:10.34,2013-06-20 07:11:00,
2013-06-20 03:16:00,52.2,36.0,30.33,NNE,25,0.0,0.0,54,0.00,BKN,BKN,0.00,WeatherDisplay:10.34,2013-06-20 07:16:00,
2013-06-20 03:21:00,52.2,36.0,30.33,NNE,25,0.0,0.0,54,0.00,BKN,BKN,0.00,WeatherDisplay:10.34,2013-06-20 07:21:00,
2013-06-20 03:26:00,52.0,35.8,30.33,NNE,25,0.0,0.0,54,0.00,BKN,BKN,0.00,WeatherDisplay:10.34,2013-06-20 07:26:00,
2013-06-20 03:31:00,52.0,35.8,30.33,NNE,25,0.0,0.0,54,0.00,BKN,BKN,0.00,WeatherDisplay:10.34,2013-06-20 07:31:00,
2013-06-20 03:36:00,52.0,35.8,30.36,NNE,24,0.0,0.0,54,0.00,BKN,BKN,0.00,WeatherDisplay:10.34,2013-06-20 07:36:00,
2013-06-20 03:41:00,51.8,35.7,30.36,NNE,25,0.0,0.0,54,0.00,BKN,BKN,0.00,WeatherDisplay:10.34,2013-06-20 07:41:00,
2013-06-20 03:46:00,51.6,36.0,30.36,NNE,24,0.0,0.0,55,0.00,BKN,BKN,0.00,WeatherDisplay:10.34,2013-06-20 07:46:00,
2013-06-20 03:51:00,51.6,36.0,30.36,NNE,25,0.0,0.0,55,0.00,BKN,BKN,0.00,WeatherDisplay:10.34,2013-06-20 07:51:00,
2013-06-20 03:56:00,51.6,36.0,30.36,NNE,24,0.0,0.0,55,0.00,BKN,BKN,0.00,WeatherDisplay:10.34,2013-06-20 07:56:00,
2013-06-20 04:01:00,51.6,36.0,30.36,NNE,25,0.0,0.0,55,0.00,BKN,BKN,0.00,WeatherDisplay:10.34,2013-06-20 08:01:00,
2013-06-20 04:06:00,51.6,36.0,30.36,NNE,25,0.0,0.0,55,0.00,BKN,BKN,0.00,WeatherDisplay:10.34,2013-06-20 08:06:00,
2013-06-20 04:11:00,51.6,36.4,30.36,NNE,24,0.0,0.0,56,0.00,BKN,BKN,0.00,WeatherDisplay:10.34,2013-06-20 08:11:00,
2013-06-20 04:16:00,51.4,36.3,30.36,NNE,25,0.0,0.0,56,0.00,BKN,BKN,0.00,WeatherDisplay:10.34,2013-06-20 08:16:00,
2013-06-20 04:21:00,51.3,36.1,30.36,NNE,25,0.0,0.0,56,0.00,BKN,BKN,0.00,WeatherDisplay:10.34,2013-06-20 08:21:00,
2013-06-20 04:26:00,51.1,35.9,30.36,NNE,25,0.0,0.0,56,0.00,BKN,BKN,0.00,WeatherDisplay:10.34,2013-06-20 08:26:00,
2013-06-20 04:31:00,51.1,36.4,30.36,NNE,25,0.0,0.0,57,0.00,BKN,BKN,0.00,WeatherDisplay:10.34,2013-06-20 08:31:00,
2013-06-20 04:36:00,50.9,36.6,30.36,NNE,25,0.0,0.0,58,0.00,BKN,BKN,0.00,WeatherDisplay:10.34,2013-06-20 08:36:00,
2013-06-20 04:41:00,50.9,36.6,30.36,NNE,25,0.0,0.0,58,0.00,BKN,BKN,0.00,WeatherDisplay:10.34,2013-06-20 08:41:00,
2013-06-20 04:46:00,50.7,36.9,30.36,NNE,25,0.0,0.0,59,0.00,BKN,BKN,0.00,WeatherDisplay:10.34,2013-06-20 08:46:00,
2013-06-20 04:51:00,50.7,36.9,30.36,NNE,25,0.0,0.0,59,0.00,BKN,BKN,0.00,WeatherDisplay:10.34,2013-06-20 08:51:00,
2013-06-20 04:56:00,50.7,37.3,30.36,NNE,25,0.0,0.0,60,0.00,BKN,BKN,0.00,WeatherDisplay:10.34,2013-06-20 08:56:00,
2013-06-20 05:01:00,50.7,37.3,30.36,NNE,25,0.0,0.0,60,0.00,BKN,BKN,0.00,WeatherDisplay:10.34,2013-06-20 09:01:00,
2013-06-20 05:06:00,50.7,37.3,30.36,NNE,25,0.0,0.0,60,0.00,BKN,BKN,0.00,WeatherDisplay:10.34,2013-06-20 09:06:00,
2013-06-20 05:11:00,50.5,37.6,30.36,NNE,25,0.0,0.0,61,0.00,BKN,BKN,0.00,WeatherDisplay:10.34,2013-06-20 09:11:00,
2013-06-20 05:16:00,50.5,38.0,30.36,NNE,25,0.0,0.0,62,0.00,BKN,BKN,0.00,WeatherDisplay:10.34,2013-06-20 09:16:00,
2013-06-20 05:21:00,50.5,38.4,30.39,NNE,25,0.0,0.0,63,0.00,BKN,BKN,0.00,WeatherDisplay:10.34,2013-06-20 09:21:00,
2013-06-20 05:26:00,50.5,38.4,30.39,NNE,25,0.0,0.0,63,0.00,BKN,BKN,0.00,WeatherDisplay:10.34,2013-06-20 09:26:00,
2013-06-20 05:31:00,50.5,38.8,30.39,NNE,25,0.0,0.0,64,0.00,BKN,BKN,0.00,WeatherDisplay:10.34,2013-06-20 09:31:00,
2013-06-20 05:36:00,50.5,39.6,30.39,NNE,25,0.0,0.0,66,0.00,BKN,BKN,0.00,WeatherDisplay:10.34,2013-06-20 09:36:00,
2013-06-20 05:41:00,50.7,40.2,30.39,NNE,25,0.0,0.0,67,0.00,BKN,BKN,0.00,WeatherDisplay:10.34,2013-06-20 09:41:00,
2013-06-20 05:46:00,51.1,40.5,30.39,NNE,25,0.0,0.0,67,0.00,BKN,BKN,0.00,WeatherDisplay:10.34,2013-06-20 09:46:00,
2013-06-20 05:51:00,51.3,40.7,30.39,NNE,25,0.0,0.0,67,0.00,BKN,BKN,0.00,WeatherDisplay:10.34,2013-06-20 09:51:00,
2013-06-20 05:56:00,51.3,40.7,30.39,NNE,25,0.0,0.0,67,0.00,BKN,BKN,0.00,WeatherDisplay:10.34,2013-06-20 09:56:00,
2013-06-20 06:01:00,51.3,40.7,30.39,NNE,25,0.0,0.0,67,0.00,BKN,BKN,0.00,WeatherDisplay:10.34,2013-06-20 10:01:00,
2013-06-20 06:07:00,51.6,41.0,30.39,NNE,21,0.0,0.0,67,0.00,BKN,BKN,0.00,WeatherDisplay:10.34,2013-06-20 10:07:00,
2013-06-20 06:12:00,51.6,41.0,30.39,NNE,21,0.0,0.0,67,0.00,BKN,BKN,0.00,WeatherDisplay:10.34,2013-06-20 10:12:00,
2013-06-20 06:17:00,51.6,41.4,30.39,NNE,21,0.0,0.0,68,0.00,BKN,BKN,0.00,WeatherDisplay:10.34,2013-06-20 10:17:00,
2013-06-20 06:22:00,51.8,41.6,30.39,NNE,21,0.0,0.0,68,0.00,BKN,BKN,0.00,WeatherDisplay:10.34,2013-06-20 10:22:00,
2013-06-20 06:27:00,51.8,41.6,30.39,NNE,22,0.0,0.0,68,0.00,BKN,BKN,0.00,WeatherDisplay:10.34,2013-06-20 10:27:00,
2013-06-20 06:32:00,51.8,41.9,30.39,NNE,22,0.0,0.0,69,0.00,BKN,BKN,0.00,WeatherDisplay:10.34,2013-06-20 10:32:00,
2013-06-20 06:37:00,52.0,42.1,30.39,NNE,21,0.0,0.0,69,0.00,BKN,BKN,0.00,WeatherDisplay:10.34,2013-06-20 10:37:00,
2013-06-20 06:42:00,52.2,42.3,30.39,NNE,21,0.0,0.0,69,0.00,BKN,BKN,0.00,WeatherDisplay:10.34,2013-06-20 10:42:00,
2013-06-20 06:48:00,52.3,42.8,30.39,NNE,22,0.0,0.0,70,0.00,BKN,BKN,0.00,WeatherDisplay:10.34,2013-06-20 10:48:00,
2013-06-20 06:53:00,52.5,43.0,30.39,NNE,22,0.0,0.0,70,0.00,BKN,BKN,0.00,WeatherDisplay:10.34,2013-06-20 10:53:00,
2013-06-20 06:58:00,52.9,43.0,30.39,NNE,22,0.0,0.0,69,0.00,BKN,BKN,0.00,WeatherDisplay:10.34,2013-06-20 10:58:00,
2013-06-20 07:03:00,53.1,43.2,30.39,NNE,22,0.0,0.0,69,0.00,BKN,BKN,0.00,WeatherDisplay:10.34,2013-06-20 11:03:00,
2013-06-20 07:08:00,53.2,43.3,30.39,NNE,21,0.0,0.0,69,0.00,BKN,BKN,0.00,WeatherDisplay:10.34,2013-06-20 11:08:00,
2013-06-20 07:13:00,53.6,43.7,30.39,NNE,21,0.0,0.0,69,0.00,BKN,BKN,0.00,WeatherDisplay:10.34,2013-06-20 11:13:00,
2013-06-20 07:18:00,53.8,43.8,30.39,NNE,21,0.0,0.0,69,0.00,BKN,BKN,0.00,WeatherDisplay:10.34,2013-06-20 11:18:00,
2013-06-20 07:23:00,54.0,44.0,30.42,NNE,21,0.0,0.0,69,0.00,BKN,BKN,0.00,WeatherDisplay:10.34,2013-06-20 11:23:00,
2013-06-20 07:28:00,54.1,44.2,30.42,NNE,22,0.0,0.0,69,0.00,BKN,BKN,0.00,WeatherDisplay:10.34,2013-06-20 11:28:00,
2013-06-20 07:33:00,54.5,44.5,30.42,NNE,21,0.0,5.0,69,0.00,BKN,BKN,0.00,WeatherDisplay:10.34,2013-06-20 11:33:00,
2013-06-20 07:38:00,54.9,44.9,30.42,NNE,20,0.0,0.0,69,0.00,BKN,BKN,0.00,WeatherDisplay:10.34,2013-06-20 11:38:00,
2013-06-20 07:43:00,55.2,45.2,30.42,NNE,20,3.0,3.0,69,0.00,BKN,BKN,0.00,WeatherDisplay:10.34,2013-06-20 11:43:00,
2013-06-20 07:48:00,55.4,45.4,30.42,North,10,4.0,7.0,69,0.00,BKN,BKN,0.00,WeatherDisplay:10.34,2013-06-20 11:48:00,
2013-06-20 07:53:00,55.9,45.5,30.42,North,10,0.0,0.0,68,0.00,BKN,BKN,0.00,WeatherDisplay:10.34,2013-06-20 11:53:00,
2013-06-20 07:58:00,56.1,45.3,30.42,North,10,3.0,5.0,67,0.00,BKN,BKN,0.00,WeatherDisplay:10.34,2013-06-20 11:58:00,
2013-06-20 08:03:00,56.5,44.9,30.42,WNW,301,0.0,3.0,65,0.00,BKN,BKN,0.00,WeatherDisplay:10.34,2013-06-20 12:03:00,
2013-06-20 08:08:00,56.7,43.8,30.42,WNW,301,0.0,3.0,62,0.00,BKN,BKN,0.00,WeatherDisplay:10.34,2013-06-20 12:08:00,
2013-06-20 08:13:00,57.0,43.7,30.42,WNW,301,0.0,5.0,61,0.00,BKN,BKN,0.00,WeatherDisplay:10.34,2013-06-20 12:13:00,
2013-06-20 08:18:00,57.2,43.4,30.42,WNW,301,3.0,3.0,60,0.00,BKN,BKN,0.00,WeatherDisplay:10.34,2013-06-20 12:18:00,
2013-06-20 08:23:00,57.4,43.2,30.42,WNW,301,0.0,0.0,59,0.00,BKN,BKN,0.00,WeatherDisplay:10.34,2013-06-20 12:23:00,
2013-06-20 08:28:00,57.6,42.9,30.42,North,11,0.0,2.0,58,0.00,BKN,BKN,0.00,WeatherDisplay:10.34,2013-06-20 12:28:00,
2013-06-20 08:33:00,57.9,42.8,30.42,NW,304,0.0,7.0,57,0.00,BKN,BKN,0.00,WeatherDisplay:10.34,2013-06-20 12:33:00,
2013-06-20 08:38:00,58.1,42.9,30.42,NW,304,0.0,3.0,57,0.00,BKN,BKN,0.00,WeatherDisplay:10.34,2013-06-20 12:38:00,
2013-06-20 08:43:00,58.3,42.6,30.42,NW,316,4.0,5.0,56,0.00,BKN,BKN,0.00,WeatherDisplay:10.34,2013-06-20 12:43:00,
2013-06-20 08:48:00,58.5,42.3,30.42,NNW,341,0.0,0.0,55,0.00,BKN,BKN,0.00,WeatherDisplay:10.34,2013-06-20 12:48:00,
2013-06-20 08:53:00,58.8,42.2,30.42,NNW,336,0.0,3.0,54,0.00,BKN,BKN,0.00,WeatherDisplay:10.34,2013-06-20 12:53:00,
2013-06-20 08:58:00,59.2,42.0,30.42,NNW,336,3.0,3.0,53,0.00,BKN,BKN,0.00,WeatherDisplay:10.34,2013-06-20 12:58:00,
2013-06-20 09:03:00,59.5,42.4,30.42,SSW,201,4.0,6.0,53,0.00,BKN,BKN,0.00,WeatherDisplay:10.34,2013-06-20 13:03:00,
2013-06-20 09:08:00,59.7,42.6,30.42,NW,304,0.0,3.0,53,0.00,BKN,BKN,0.00,WeatherDisplay:10.34,2013-06-20 13:08:00,
2013-06-20 09:13:00,60.1,42.9,30.42,NW,304,0.0,2.0,53,0.00,BKN,BKN,0.00,WeatherDisplay:10.34,2013-06-20 13:13:00,
2013-06-20 09:18:00,60.3,43.1,30.42,WNW,302,0.0,3.0,53,0.00,BKN,BKN,0.00,WeatherDisplay:10.34,2013-06-20 13:18:00,
2013-06-20 09:23:00,60.4,42.7,30.42,North,351,3.0,6.0,52,0.00,BKN,BKN,0.00,WeatherDisplay:10.34,2013-06-20 13:23:00,
2013-06-20 09:28:00,60.8,42.5,30.42,SW,220,3.0,6.0,51,0.00,BKN,BKN,0.00,WeatherDisplay:10.34,2013-06-20 13:28:00,
2013-06-20 09:33:00,61.2,40.8,30.42,SW,231,7.0,10.0,47,0.00,BKN,BKN,0.00,WeatherDisplay:10.34,2013-06-20 13:33:00,
2013-06-20 09:38:00,61.5,38.2,30.42,WSW,251,4.0,9.0,42,0.00,BKN,BKN,0.00,WeatherDisplay:10.34,2013-06-20 13:38:00,
2013-06-20 09:43:00,61.7,36.5,30.42,North,351,0.0,7.0,39,0.00,BKN,BKN,0.00,WeatherDisplay:10.34,2013-06-20 13:43:00,
2013-06-20 09:48:00,61.7,37.1,30.42,SW,231,0.0,5.0,40,0.00,BKN,BKN,0.00,WeatherDisplay:10.34,2013-06-20 13:48:00,
2013-06-20 09:53:00,61.9,36.6,30.42,NNW,347,0.0,3.0,39,0.00,BKN,BKN,0.00,WeatherDisplay:10.34,2013-06-20 13:53:00,
2013-06-20 09:58:00,62.2,35.6,30.42,NNE,28,0.0,5.0,37,0.00,BKN,BKN,0.00,WeatherDisplay:10.34,2013-06-20 13:58:00,
2013-06-20 10:03:00,62.4,36.5,30.42,West,277,3.0,9.0,38,0.00,BKN,BKN,0.00,WeatherDisplay:10.34,2013-06-20 14:03:00,
2013-06-20 10:08:00,62.8,36.1,30.42,North,6,0.0,5.0,37,0.00,BKN,BKN,0.00,WeatherDisplay:10.34,2013-06-20 14:08:00,
2013-06-20 10:13:00,63.1,35.7,30.42,SSW,199,5.0,9.0,36,0.00,BKN,BKN,0.00,WeatherDisplay:10.34,2013-06-20 14:13:00,
2013-06-20 10:18:00,63.5,36.0,30.42,SW,233,3.0,8.0,36,0.00,BKN,BKN,0.00,WeatherDisplay:10.34,2013-06-20 14:18:00,
2013-06-20 10:23:00,63.7,36.9,30.42,North,8,7.0,14.0,37,0.00,BKN,BKN,0.00,WeatherDisplay:10.34,2013-06-20 14:23:00,
2013-06-20 10:28:00,63.7,36.2,30.42,NE,39,4.0,9.0,36,0.00,BKN,BKN,0.00,WeatherDisplay:10.34,2013-06-20 14:28:00,
2013-06-20 10:33:00,63.7,35.5,30.42,SE,135,0.0,5.0,35,0.00,BKN,BKN,0.00,WeatherDisplay:10.34,2013-06-20 14:33:00,
2013-06-20 10:38:00,63.9,35.7,30.42,SW,222,6.0,10.0,35,0.00,BKN,BKN,0.00,WeatherDisplay:10.34,2013-06-20 14:38:00,
2013-06-20 10:43:00,64.0,34.3,30.42,South,181,7.0,10.0,33,0.00,BKN,BKN,0.00,WeatherDisplay:10.34,2013-06-20 14:43:00,
2013-06-20 10:48:00,64.0,34.3,30.42,SW,228,4.0,7.0,33,0.00,BKN,BKN,0.00,WeatherDisplay:10.34,2013-06-20 14:48:00,
2013-06-20 10:53:00,64.4,34.6,30.42,WNW,292,4.0,10.0,33,0.00,BKN,BKN,0.00,WeatherDisplay:10.34,2013-06-20 14:53:00,
2013-06-20 10:58:00,64.4,33.9,30.42,NNE,12,3.0,5.0,32,0.00,BKN,BKN,0.00,WeatherDisplay:10.34,2013-06-20 14:58:00,
2013-06-20 11:03:00,64.8,35.0,30.42,SSE,157,0.0,8.0,33,0.00,BKN,BKN,0.00,WeatherDisplay:10.34,2013-06-20 15:03:00,
2013-06-20 11:08:00,65.1,35.3,30.42,South,170,4.0,6.0,33,0.00,BKN,BKN,0.00,WeatherDisplay:10.34,2013-06-20 15:08:00,
2013-06-20 11:13:00,65.3,34.7,30.42,SSW,209,3.0,12.0,32,0.00,BKN,BKN,0.00,WeatherDisplay:10.34,2013-06-20 15:13:00,
2013-06-20 11:18:00,65.3,33.0,30.42,SSW,213,4.0,9.0,30,0.00,BKN,BKN,0.00,WeatherDisplay:10.34,2013-06-20 15:18:00,
2013-06-20 11:23:00,65.7,34.2,30.42,North,351,6.0,9.0,31,0.00,BKN,BKN,0.00,WeatherDisplay:10.34,2013-06-20 15:23:00,
2013-06-20 11:28:00,66.0,32.8,30.42,NNW,335,6.0,8.0,29,0.00,BKN,BKN,0.00,WeatherDisplay:10.34,2013-06-20 15:28:00,
2013-06-20 11:33:00,66.2,33.0,30.42,SSW,193,4.0,6.0,29,0.00,BKN,BKN,0.00,WeatherDisplay:10.34,2013-06-20 15:33:00,
2013-06-20 11:38:00,66.0,32.8,30.42,WNW,289,3.0,7.0,29,0.00,BKN,BKN,0.00,WeatherDisplay:10.34,2013-06-20 15:38:00,
2013-06-20 11:43:00,66.4,32.3,30.42,SW,233,6.0,9.0,28,0.00,BKN,BKN,0.00,WeatherDisplay:10.34,2013-06-20 15:43:00,
2013-06-20 11:48:00,66.6,33.3,30.42,North,8,4.0,8.0,29,0.00,BKN,BKN,0.00,WeatherDisplay:10.34,2013-06-20 15:48:00,
2013-06-20 11:53:00,66.9,33.6,30.42,WSW,254,5.0,12.0,29,0.00,BKN,BKN,0.00,WeatherDisplay:10.34,2013-06-20 15:53:00,
2013-06-20 11:58:00,67.3,32.1,30.42,NNW,334,7.0,12.0,27,0.00,BKN,BKN,0.00,WeatherDisplay:10.34,2013-06-20 15:58:00,
2013-06-20 12:03:00,67.1,32.9,30.42,SSE,166,6.0,12.0,28,0.00,BKN,BKN,0.00,WeatherDisplay:10.34,2013-06-20 16:03:00,
2013-06-20 12:08:00,66.9,34.5,30.42,WSW,253,4.0,8.0,30,0.00,BKN,BKN,0.00,WeatherDisplay:10.34,2013-06-20 16:08:00,
2013-06-20 12:13:00,67.1,35.4,30.42,West,273,7.0,10.0,31,0.00,BKN,BKN,0.00,WeatherDisplay:10.34,2013-06-20 16:13:00,
2013-06-20 12:18:00,67.3,35.6,30.42,WSW,246,5.0,7.0,31,0.00,BKN,BKN,0.00,WeatherDisplay:10.34,2013-06-20 16:18:00,
2013-06-20 12:23:00,67.5,34.9,30.39,WNW,282,4.0,8.0,30,0.00,BKN,BKN,0.00,WeatherDisplay:10.34,2013-06-20 16:23:00,
2013-06-20 12:28:00,67.6,35.1,30.39,WNW,283,5.0,8.0,30,0.00,BKN,BKN,0.00,WeatherDisplay:10.34,2013-06-20 16:28:00,
2013-06-20 12:33:00,67.5,35.7,30.39,WSW,255,5.0,13.0,31,0.00,BKN,BKN,0.00,WeatherDisplay:10.34,2013-06-20 16:33:00,
2013-06-20 12:38:00,67.8,36.9,30.42,West,280,6.0,10.0,32,0.00,BKN,BKN,0.00,WeatherDisplay:10.34,2013-06-20 16:38:00,
2013-06-20 12:43:00,67.8,36.9,30.42,South,184,5.0,9.0,32,0.00,BKN,BKN,0.00,WeatherDisplay:10.34,2013-06-20 16:43:00,
2013-06-20 12:48:00,68.2,37.2,30.42,NNE,21,4.0,6.0,32,0.00,BKN,BKN,0.00,WeatherDisplay:10.34,2013-06-20 16:48:00,
2013-06-20 12:53:00,68.2,37.2,30.38,WNW,293,5.0,17.0,32,0.00,BKN,BKN,0.00,WeatherDisplay:10.34,2013-06-20 16:53:00,
2013-06-20 12:58:00,68.0,37.0,30.38,North,7,5.0,12.0,32,0.00,BKN,BKN,0.00,WeatherDisplay:10.34,2013-06-20 16:58:00,
2013-06-20 13:03:00,68.0,36.2,30.39,SSW,206,4.0,13.0,31,0.00,BKN,BKN,0.00,WeatherDisplay:10.34,2013-06-20 17:03:00,
2013-06-20 13:08:00,68.0,36.2,30.39,NW,317,5.0,12.0,31,0.00,BKN,BKN,0.00,WeatherDisplay:10.34,2013-06-20 17:08:00,
2013-06-20 13:13:00,67.8,36.9,30.39,North,3,5.0,8.0,32,0.00,BKN,BKN,0.00,WeatherDisplay:10.34,2013-06-20 17:13:00,
2013-06-20 13:18:00,68.2,37.2,30.39,SSW,194,7.0,14.0,32,0.00,BKN,BKN,0.00,WeatherDisplay:10.34,2013-06-20 17:18:00,
2013-06-20 13:23:00,68.4,37.3,30.39,NNE,21,4.0,7.0,32,0.00,BKN,BKN,0.00,WeatherDisplay:10.34,2013-06-20 17:23:00,
2013-06-20 13:28:00,68.5,37.5,30.39,ENE,64,4.0,7.0,32,0.00,BKN,BKN,0.00,WeatherDisplay:10.34,2013-06-20 17:28:00,
2013-06-20 13:33:00,68.5,37.5,30.39,NNE,19,6.0,10.0,32,0.00,BKN,BKN,0.00,WeatherDisplay:10.34,2013-06-20 17:33:00,
2013-06-20 13:38:00,68.5,35.9,30.39,North,10,6.0,9.0,30,0.00,BKN,BKN,0.00,WeatherDisplay:10.34,2013-06-20 17:38:00,
2013-06-20 13:43:00,68.2,36.4,30.39,SSW,209,4.0,7.0,31,0.00,BKN,BKN,0.00,WeatherDisplay:10.34,2013-06-20 17:43:00,
2013-06-20 13:48:00,68.5,36.7,30.39,SW,215,3.0,6.0,31,0.00,BKN,BKN,0.00,WeatherDisplay:10.34,2013-06-20 17:48:00,
2013-06-20 13:53:00,68.9,37.8,30.39,WSW,257,4.0,6.0,32,0.00,BKN,BKN,0.00,WeatherDisplay:10.34,2013-06-20 17:53:00,
2013-06-20 13:58:00,69.4,38.3,30.39,South,177,4.0,10.0,32,0.00,BKN,BKN,0.00,WeatherDisplay:10.34,2013-06-20 17:58:00,
2013-06-20 14:04:00,69.6,36.8,30.39,WNW,285,4.0,4.0,30,0.00,BKN,BKN,0.00,WeatherDisplay:10.34,2013-06-20 18:04:00,
2013-06-20 14:09:00,69.3,36.5,30.39,East,101,4.0,14.0,30,0.00,BKN,BKN,0.00,WeatherDisplay:10.34,2013-06-20 18:09:00,
2013-06-20 14:14:00,69.4,35.8,30.39,West,276,6.0,9.0,29,0.00,BKN,BKN,0.00,WeatherDisplay:10.34,2013-06-20 18:14:00,
2013-06-20 14:19:00,69.8,36.9,30.39,SW,225,4.0,6.0,30,0.00,BKN,BKN,0.00,WeatherDisplay:10.34,2013-06-20 18:19:00,
2013-06-20 14:24:00,69.8,36.1,30.39,SSE,152,4.0,9.0,29,0.00,BKN,BKN,0.00,WeatherDisplay:10.34,2013-06-20 18:24:00,
2013-06-20 14:29:00,70.0,36.2,30.39,West,266,7.0,12.0,29,0.00,BKN,BKN,0.00,WeatherDisplay:10.34,2013-06-20 18:29:00,
2013-06-20 14:34:00,70.2,36.4,30.39,SW,218,5.0,7.0,29,0.00,BKN,BKN,0.00,WeatherDisplay:10.34,2013-06-20 18:34:00,
2013-06-20 14:39:00,70.3,36.6,30.39,NW,305,7.0,7.0,29,0.00,BKN,BKN,0.00,WeatherDisplay:10.34,2013-06-20 18:39:00,
2013-06-20 14:44:00,70.3,37.4,30.39,NE,46,5.0,6.0,30,0.00,BKN,BKN,0.00,WeatherDisplay:10.34,2013-06-20 18:44:00,
2013-06-20 14:49:00,70.3,37.4,30.39,WSW,238,3.0,9.0,30,0.00,BKN,BKN,0.00,WeatherDisplay:10.34,2013-06-20 18:49:00,
2013-06-20 14:54:00,70.5,37.6,30.39,WSW,254,4.0,7.0,30,0.00,BKN,BKN,0.00,WeatherDisplay:10.34,2013-06-20 18:54:00,
2013-06-20 14:59:00,70.7,36.9,30.39,NE,42,4.0,7.0,29,0.00,BKN,BKN,0.00,WeatherDisplay:10.34,2013-06-20 18:59:00,
2013-06-20 15:04:00,70.7,36.9,30.39,NNE,14,4.0,7.0,29,0.00,BKN,BKN,0.00,WeatherDisplay:10.34,2013-06-20 19:04:00,
2013-06-20 15:09:00,70.9,37.9,30.35,NNW,339,4.0,6.0,30,0.00,BKN,BKN,0.00,WeatherDisplay:10.34,2013-06-20 19:09:00,
2013-06-20 15:14:00,71.2,36.4,30.35,SSW,197,5.0,7.0,28,0.00,BKN,BKN,0.00,WeatherDisplay:10.34,2013-06-20 19:14:00,
2013-06-20 15:19:00,71.2,36.4,30.35,SSW,197,3.0,7.0,28,0.00,BKN,BKN,0.00,WeatherDisplay:10.34,2013-06-20 19:19:00,
2013-06-20 15:24:00,71.4,36.6,30.39,SW,234,4.0,6.0,28,0.00,BKN,BKN,0.00,WeatherDisplay:10.34,2013-06-20 19:24:00,
2013-06-20 15:29:00,71.8,36.9,30.39,SSW,204,4.0,7.0,28,0.00,BKN,BKN,0.00,WeatherDisplay:10.34,2013-06-20 19:29:00,
2013-06-20 15:34:00,72.0,37.1,30.39,WSW,257,3.0,6.0,28,0.00,BKN,BKN,0.00,WeatherDisplay:10.34,2013-06-20 19:34:00,
2013-06-20 15:39:00,72.3,38.3,30.38,NNE,33,4.0,6.0,29,0.00,BKN,BKN,0.00,WeatherDisplay:10.34,2013-06-20 19:39:00,
2013-06-20 15:44:00,72.3,37.4,30.39,WSW,248,0.0,3.0,28,0.00,BKN,BKN,0.00,WeatherDisplay:10.34,2013-06-20 19:44:00,
2013-06-20 15:49:00,72.1,36.3,30.39,WSW,248,5.0,9.0,27,0.00,BKN,BKN,0.00,WeatherDisplay:10.34,2013-06-20 19:49:00,
2013-06-20 15:54:00,72.5,37.5,30.39,North,11,4.0,4.0,28,0.00,BKN,BKN,0.00,WeatherDisplay:10.34,2013-06-20 19:54:00,
2013-06-20 15:59:00,72.5,36.6,30.39,SSW,211,4.0,5.0,27,0.00,BKN,BKN,0.00,WeatherDisplay:10.34,2013-06-20 19:59:00,
2013-06-20 16:04:00,72.5,36.6,30.39,SSW,210,0.0,3.0,27,0.00,BKN,BKN,0.00,WeatherDisplay:10.34,2013-06-20 20:04:00,
2013-06-20 16:09:00,72.5,37.5,30.35,North,0,4.0,6.0,28,0.00,BKN,BKN,0.00,WeatherDisplay:10.34,2013-06-20 20:09:00,
2013-06-20 16:14:00,72.5,35.6,30.35,North,351,4.0,7.0,26,0.00,BKN,BKN,0.00,WeatherDisplay:10.34,2013-06-20 20:14:00,
2013-06-20 16:19:00,72.3,36.4,30.35,NNE,27,0.0,5.0,27,0.00,BKN,BKN,0.00,WeatherDisplay:10.34,2013-06-20 20:19:00,
2013-06-20 16:24:00,72.5,35.6,30.35,NW,304,7.0,10.0,26,0.00,BKN,BKN,0.00,WeatherDisplay:10.34,2013-06-20 20:24:00,
2013-06-20 16:29:00,72.7,35.8,30.35,South,177,4.0,7.0,26,0.00,BKN,BKN,0.00,WeatherDisplay:10.34,2013-06-20 20:29:00,
2013-06-20 16:34:00,73.2,37.2,30.35,West,271,4.0,7.0,27,0.00,BKN,BKN,0.00,WeatherDisplay:10.34,2013-06-20 20:34:00,
2013-06-20 16:39:00,73.4,36.4,30.35,West,264,4.0,7.0,26,0.00,BKN,BKN,0.00,WeatherDisplay:10.34,2013-06-20 20:39:00,
2013-06-20 16:44:00,73.9,36.9,30.35,NNE,28,3.0,6.0,26,0.00,BKN,BKN,0.00,WeatherDisplay:10.34,2013-06-20 20:44:00,
2013-06-20 16:49:00,74.1,37.0,30.35,SW,231,3.0,6.0,26,0.00,BKN,BKN,0.00,WeatherDisplay:10.34,2013-06-20 20:49:00,
2013-06-20 16:54:00,74.7,38.4,30.35,SW,233,3.0,3.0,27,0.00,BKN,BKN,0.00,WeatherDisplay:10.34,2013-06-20 20:54:00,
2013-06-20 16:59:00,74.8,36.6,30.35,WSW,250,6.0,8.0,25,0.00,BKN,BKN,0.00,WeatherDisplay:10.34,2013-06-20 20:59:00,
2013-06-20 17:04:00,75.0,36.8,30.35,WNW,285,4.0,5.0,25,0.00,BKN,BKN,0.00,WeatherDisplay:10.34,2013-06-20 21:04:00,
2013-06-20 17:09:00,75.0,36.8,30.35,WNW,288,4.0,8.0,25,0.00,BKN,BKN,0.00,WeatherDisplay:10.34,2013-06-20 21:09:00,
2013-06-20 17:14:00,75.0,36.8,30.35,WSW,252,3.0,9.0,25,0.00,BKN,BKN,0.00,WeatherDisplay:10.34,2013-06-20 21:14:00,
2013-06-20 17:19:00,75.0,36.8,30.35,SW,233,4.0,9.0,25,0.00,BKN,BKN,0.00,WeatherDisplay:10.34,2013-06-20 21:19:00,
2013-06-20 17:24:00,75.4,37.1,30.35,NW,322,0.0,3.0,25,0.00,BKN,BKN,0.00,WeatherDisplay:10.34,2013-06-20 21:24:00,
2013-06-20 17:29:00,75.4,38.1,30.35,South,191,3.0,6.0,26,0.00,BKN,BKN,0.00,WeatherDisplay:10.34,2013-06-20 21:29:00,
2013-06-20 17:34:00,75.2,35.9,30.35,NNW,334,4.0,9.0,24,0.00,BKN,BKN,0.00,WeatherDisplay:10.34,2013-06-20 21:34:00,
2013-06-20 17:39:00,75.6,37.2,30.35,SSW,195,5.0,8.0,25,0.00,BKN,BKN,0.00,WeatherDisplay:10.34,2013-06-20 21:39:00,
2013-06-20 17:44:00,75.7,39.4,30.35,SSW,210,0.0,3.0,27,0.00,BKN,BKN,0.00,WeatherDisplay:10.34,2013-06-20 21:44:00,
2013-06-20 17:49:00,75.7,39.4,30.35,SW,234,5.0,10.0,27,0.00,BKN,BKN,0.00,WeatherDisplay:10.34,2013-06-20 21:49:00,
2013-06-20 17:54:00,75.7,37.4,30.35,SW,220,4.0,7.0,25,0.00,BKN,BKN,0.00,WeatherDisplay:10.34,2013-06-20 21:54:00,
2013-06-20 17:59:00,75.7,38.4,30.35,SW,220,0.0,3.0,26,0.00,BKN,BKN,0.00,WeatherDisplay:10.34,2013-06-20 21:59:00,
2013-06-20 18:04:00,75.7,39.4,30.35,SSW,204,3.0,3.0,27,0.00,BKN,BKN,0.00,WeatherDisplay:10.34,2013-06-20 22:04:00,
2013-06-20 18:09:00,75.4,40.9,30.35,SW,215,0.0,0.0,29,0.00,BKN,BKN,0.00,WeatherDisplay:10.34,2013-06-20 22:09:00,
2013-06-20 18:14:00,75.0,38.8,30.35,SSW,213,5.0,8.0,27,0.00,BKN,BKN,0.00,WeatherDisplay:10.34,2013-06-20 22:14:00,
2013-06-20 18:19:00,74.8,40.4,30.35,SW,236,0.0,3.0,29,0.00,BKN,BKN,0.00,WeatherDisplay:10.34,2013-06-20 22:19:00,
2013-06-20 18:24:00,74.3,38.1,30.35,West,259,3.0,5.0,27,0.00,BKN,BKN,0.00,WeatherDisplay:10.34,2013-06-20 22:24:00,
2013-06-20 18:29:00,73.9,38.8,30.35,WSW,257,4.0,7.0,28,0.00,BKN,BKN,0.00,WeatherDisplay:10.34,2013-06-20 22:29:00,
2013-06-20 18:34:00,73.2,40.8,30.35,WSW,251,3.0,3.0,31,0.00,BKN,BKN,0.00,WeatherDisplay:10.34,2013-06-20 22:34:00,
2013-06-20 18:39:00,72.7,40.3,30.35,WNW,296,0.0,9.0,31,0.00,BKN,BKN,0.00,WeatherDisplay:10.34,2013-06-20 22:39:00,
2013-06-20 18:44:00,72.3,40.0,30.35,SSW,208,3.0,6.0,31,0.00,BKN,BKN,0.00,WeatherDisplay:10.34,2013-06-20 22:44:00,
2013-06-20 18:49:00,72.0,40.5,30.35,SW,233,3.0,5.0,32,0.00,BKN,BKN,0.00,WeatherDisplay:10.34,2013-06-20 22:49:00,
2013-06-20 18:54:00,71.6,41.0,30.35,WNW,282,4.0,5.0,33,0.00,BKN,BKN,0.00,WeatherDisplay:10.34,2013-06-20 22:54:00,
2013-06-20 18:59:00,71.1,40.5,30.35,WNW,289,0.0,3.0,33,0.00,BKN,BKN,0.00,WeatherDisplay:10.34,2013-06-20 22:59:00,
2013-06-20 19:04:00,70.5,40.0,30.35,West,281,3.0,6.0,33,0.00,BKN,BKN,0.00,WeatherDisplay:10.34,2013-06-20 23:04:00,
2013-06-20 19:09:00,70.0,40.3,30.35,West,269,0.0,0.0,34,0.00,BKN,BKN,0.00,WeatherDisplay:10.34,2013-06-20 23:09:00,
2013-06-20 19:14:00,69.3,40.4,30.35,SSE,159,3.0,3.0,35,0.00,BKN,BKN,0.00,WeatherDisplay:10.34,2013-06-20 23:14:00,
2013-06-20 19:19:00,68.7,40.7,30.36,South,170,0.0,2.0,36,0.00,BKN,BKN,0.00,WeatherDisplay:10.34,2013-06-20 23:19:00,
2013-06-20 19:24:00,68.4,41.1,30.36,South,172,3.0,3.0,37,0.00,BKN,BKN,0.00,WeatherDisplay:10.34,2013-06-20 23:24:00,
2013-06-20 19:29:00,68.0,41.4,30.36,South,172,0.0,0.0,38,0.00,BKN,BKN,0.00,WeatherDisplay:10.34,2013-06-20 23:29:00,
2013-06-20 19:34:00,67.5,41.6,30.36,South,172,0.0,0.0,39,0.00,BKN,BKN,0.00,WeatherDisplay:10.34,2013-06-20 23:34:00,
2013-06-20 19:39:00,67.3,41.5,30.36,South,172,0.0,0.0,39,0.00,BKN,BKN,0.00,WeatherDisplay:10.34,2013-06-20 23:39:00,
2013-06-20 19:44:00,66.9,41.8,30.36,South,172,0.0,0.0,40,0.00,BKN,BKN,0.00,WeatherDisplay:10.34,2013-06-20 23:44:00,
2013-06-20 19:49:00,66.4,42.0,30.36,South,172,0.0,0.0,41,0.00,BKN,BKN,0.00,WeatherDisplay:10.34,2013-06-20 23:49:00,
2013-06-20 19:54:00,66.2,43.0,30.36,South,180,3.0,5.0,43,0.00,BKN,BKN,0.00,WeatherDisplay:10.34,2013-06-20 23:54:00,
2013-06-20 19:59:00,66.0,42.9,30.36,South,180,0.0,0.0,43,0.00,BKN,BKN,0.00,WeatherDisplay:10.34,2013-06-20 23:59:00,
2013-06-20 20:04:00,65.7,42.5,30.36,South,180,0.0,2.0,43,0.00,BKN,BKN,0.00,WeatherDisplay:10.34,2013-06-21 00:04:00,
2013-06-20 20:09:00,65.5,42.4,30.36,SW,227,0.0,2.0,43,0.00,BKN,BKN,0.00,WeatherDisplay:10.34,2013-06-21 00:09:00,
2013-06-20 20:14:00,65.3,42.8,30.36,SW,227,0.0,0.0,44,0.00,BKN,BKN,0.00,WeatherDisplay:10.34,2013-06-21 00:14:00,
2013-06-20 20:19:00,65.1,42.7,30.36,SW,235,0.0,3.0,44,0.00,BKN,BKN,0.00,WeatherDisplay:10.34,2013-06-21 00:19:00,
2013-06-20 20:24:00,65.1,42.7,30.36,WSW,258,3.0,6.0,44,0.00,BKN,BKN,0.00,WeatherDisplay:10.34,2013-06-21 00:24:00,
2013-06-20 20:29:00,65.1,43.2,30.36,WSW,258,0.0,0.0,45,0.00,BKN,BKN,0.00,WeatherDisplay:10.34,2013-06-21 00:29:00,
2013-06-20 20:34:00,64.9,43.1,30.35,WSW,248,0.0,2.0,45,0.00,BKN,BKN,0.00,WeatherDisplay:10.34,2013-06-21 00:34:00,
2013-06-20 20:39:00,64.8,42.9,30.35,West,274,0.0,2.0,45,0.00,BKN,BKN,0.00,WeatherDisplay:10.34,2013-06-21 00:39:00,
2013-06-20 20:44:00,64.6,42.7,30.35,SW,216,0.0,6.0,45,0.00,BKN,BKN,0.00,WeatherDisplay:10.34,2013-06-21 00:44:00,
2013-06-20 20:49:00,64.4,42.0,30.35,WNW,293,0.0,2.0,44,0.00,BKN,BKN,0.00,WeatherDisplay:10.34,2013-06-21 00:49:00,
2013-06-20 20:54:00,64.2,42.4,30.35,WSW,240,3.0,3.0,45,0.00,BKN,BKN,0.00,WeatherDisplay:10.34,2013-06-21 00:54:00,
2013-06-20 20:59:00,64.0,42.3,30.35,WSW,239,0.0,3.0,45,0.00,BKN,BKN,0.00,WeatherDisplay:10.34,2013-06-21 00:59:00,
2013-06-20 21:04:00,63.7,41.9,30.35,WSW,240,0.0,0.0,45,0.00,BKN,BKN,0.00,WeatherDisplay:10.34,2013-06-21 01:04:00,
2013-06-20 21:09:00,63.3,42.2,30.35,WSW,240,0.0,0.0,46,0.00,BKN,BKN,0.00,WeatherDisplay:10.34,2013-06-21 01:09:00,
2013-06-20 21:14:00,63.0,41.8,30.35,WSW,240,0.0,0.0,46,0.00,BKN,BKN,0.00,WeatherDisplay:10.34,2013-06-21 01:14:00,
2013-06-20 21:19:00,62.6,41.5,30.35,WSW,240,0.0,0.0,46,0.00,BKN,BKN,0.00,WeatherDisplay:10.34,2013-06-21 01:19:00,
2013-06-20 21:24:00,62.1,41.6,30.36,WSW,240,0.0,0.0,47,0.00,BKN,BKN,0.00,WeatherDisplay:10.34,2013-06-21 01:24:00,
2013-06-20 21:29:00,61.9,42.0,30.36,WSW,241,0.0,2.0,48,0.00,BKN,BKN,0.00,WeatherDisplay:10.34,2013-06-21 01:29:00,
2013-06-20 21:34:00,61.7,41.8,30.36,WSW,241,0.0,0.0,48,0.00,BKN,BKN,0.00,WeatherDisplay:10.34,2013-06-21 01:34:00,
2013-06-20 21:39:00,61.3,41.5,30.35,WSW,241,0.0,0.0,48,0.00,BKN,BKN,0.00,WeatherDisplay:10.34,2013-06-21 01:39:00,
2013-06-20 21:44:00,61.2,41.8,30.35,WSW,241,0.0,0.0,49,0.00,BKN,BKN,0.00,WeatherDisplay:10.34,2013-06-21 01:44:00,
2013-06-20 21:49:00,61.0,42.2,30.35,WSW,241,0.0,0.0,50,0.00,BKN,BKN,0.00,WeatherDisplay:10.34,2013-06-21 01:49:00,
2013-06-20 21:54:00,61.0,42.2,30.39,WSW,241,0.0,0.0,50,0.00,BKN,BKN,0.00,WeatherDisplay:10.34,2013-06-21 01:54:00,
2013-06-20 21:59:00,60.8,42.0,30.39,WSW,241,0.0,0.0,50,0.00,BKN,BKN,0.00,WeatherDisplay:10.34,2013-06-21 01:59:00,
2013-06-20 22:04:00,60.8,42.0,30.39,WSW,241,0.0,3.0,50,0.00,BKN,BKN,0.00,WeatherDisplay:10.34,2013-06-21 02:04:00,
2013-06-20 22:09:00,60.8,42.5,30.39,WSW,241,0.0,0.0,51,0.00,BKN,BKN,0.00,WeatherDisplay:10.34,2013-06-21 02:09:00,
2013-06-20 22:14:00,60.6,42.4,30.39,WSW,241,0.0,0.0,51,0.00,BKN,BKN,0.00,WeatherDisplay:10.34,2013-06-21 02:14:00,
2013-06-20 22:19:00,60.4,42.2,30.39,WSW,241,0.0,0.0,51,0.00,BKN,BKN,0.00,WeatherDisplay:10.34,2013-06-21 02:19:00,
2013-06-20 22:24:00,60.4,42.7,30.39,WSW,241,0.0,0.0,52,0.00,BKN,BKN,0.00,WeatherDisplay:10.34,2013-06-21 02:24:00,
2013-06-20 22:29:00,60.3,43.1,30.39,WSW,241,0.0,0.0,53,0.00,BKN,BKN,0.00,WeatherDisplay:10.34,2013-06-21 02:29:00,
2013-06-20 22:34:00,60.1,42.9,30.39,WSW,241,0.0,0.0,53,0.00,BKN,BKN,0.00,WeatherDisplay:10.34,2013-06-21 02:34:00,
2013-06-20 22:39:00,60.1,43.4,30.35,West,260,0.0,0.0,54,0.00,BKN,BKN,0.00,WeatherDisplay:10.34,2013-06-21 02:39:00,
2013-06-20 22:44:00,60.1,43.4,30.35,West,260,0.0,0.0,54,0.00,BKN,BKN,0.00,WeatherDisplay:10.34,2013-06-21 02:44:00,
2013-06-20 22:49:00,60.1,43.4,30.35,West,261,0.0,0.0,54,0.00,BKN,BKN,0.00,WeatherDisplay:10.34,2013-06-21 02:49:00,
2013-06-20 22:54:00,60.1,43.9,30.35,West,261,0.0,0.0,55,0.00,BKN,BKN,0.00,WeatherDisplay:10.34,2013-06-21 02:54:00,
2013-06-20 22:59:00,59.9,44.2,30.35,West,261,0.0,0.0,56,0.00,BKN,BKN,0.00,WeatherDisplay:10.34,2013-06-21 02:59:00,
2013-06-20 23:04:00,59.9,44.6,30.35,West,261,0.0,0.0,57,0.00,BKN,BKN,0.00,WeatherDisplay:10.34,2013-06-21 03:04:00,
2013-06-20 23:09:00,59.5,45.2,30.35,West,262,0.0,0.0,59,0.00,BKN,BKN,0.00,WeatherDisplay:10.34,2013-06-21 03:09:00,
2013-06-20 23:14:00,59.4,45.0,30.35,West,261,0.0,0.0,59,0.00,BKN,BKN,0.00,WeatherDisplay:10.34,2013-06-21 03:14:00,
2013-06-20 23:19:00,59.0,45.6,30.35,West,261,0.0,0.0,61,0.00,BKN,BKN,0.00,WeatherDisplay:10.34,2013-06-21 03:19:00,
2013-06-20 23:24:00,58.8,45.8,30.38,West,262,0.0,0.0,62,0.00,BKN,BKN,0.00,WeatherDisplay:10.34,2013-06-21 03:24:00,
2013-06-20 23:29:00,58.5,45.5,30.38,West,261,0.0,0.0,62,0.00,BKN,BKN,0.00,WeatherDisplay:10.34,2013-06-21 03:29:00,
2013-06-20 23:34:00,58.5,45.5,30.38,West,261,0.0,0.0,62,0.00,BKN,BKN,0.00,WeatherDisplay:10.34,2013-06-21 03:34:00,
2013-06-20 23:39:00,58.3,45.3,30.38,West,261,0.0,0.0,62,0.00,BKN,BKN,0.00,WeatherDisplay:10.34,2013-06-21 03:39:00,
2013-06-20 23:44:00,58.3,45.7,30.38,West,261,0.0,0.0,63,0.00,BKN,BKN,0.00,WeatherDisplay:10.34,2013-06-21 03:44:00,
2013-06-20 23:49:00,58.3,45.3,30.38,West,261,0.0,0.0,62,0.00,BKN,BKN,0.00,WeatherDisplay:10.34,2013-06-21 03:49:00,
2013-06-20 23:54:00,58.1,45.1,30.38,West,261,0.0,0.0,62,0.00,BKN,BKN,0.00,WeatherDisplay:10.34,2013-06-21 03:54:00,
2013-06-20 23:59:00,58.1,45.1,30.38,West,261,0.0,0.0,62,0.00,BKN,BKN,0.00,WeatherDisplay:10.34,2013-06-21 03:59:00,